Portada
METAR-TAF:

METAR-TAF

Aeroports :

Thomson-McDuffie County Airport

Thomson, Geòrgia, Estats Units d'Amèrica

latitud: 33-31-46N, longitud: 082-30-59W, altitud: 152 m

Observació

L'informe es va fer fa 11 minuts, a les 03:35 UTC
Vent calma
Temperatura 4°C
Humitat 100%
Pressió 1024 hPa
Visibilitat: 16.1 km
Cel clar

METAR: KHQU 210335Z AUTO 00000KT 10SM CLR 04/04 A3024 RMK AO2 T00430041

Hora: 22:46 (03:46 UTC)


TAF: manca

Observacions i pronòstics meteorològics de més de 4000 aeroports (METAR i TAF).

Les estacions disponibles són els punts grocs i vermells al mapa.

Posi el ratolí al punt desitjat per veure el nom de l'estació.

Feu clic per veure les observacions i els pronòstics meteorològics.

Per canviar el mapa: feu clic els botons verds amb una creu de color negre per apropar; al botó verd amb un guió per allunyar la imatge; o en les fletxes verdes per a mapes adjacents.


METAR-TAF: